Regional Weather Roundup
Issued by NWS

Home | Current Version | Previous Version | Text Only | Print | Product List | Glossary On
Versions: 1 2 3 4 5 6 7 8 9 10 11 12 13 14 15 16 17 18 19 20 21 22 23 24 25 26 27 28 29 30 31 32 33 34 35 36 37 38 39 40 41 42 43 44 45 46 47 48 49 50
000
ASUS43 KLSX 260759
RWRMO

WEATHER SUMMARY FOR MISSOURI
NATIONAL WEATHER SERVICE SPRINGFIELD MO
300 AM CDT SAT JUL 26 2014

NOTE: "FAIR" INDICATES FEW OR NO CLOUDS BELOW 12,000 FEET WITH NO
       SIGNIFICANT WEATHER AND/OR OBSTRUCTIONS TO VISIBILITY.
       CURRENT SKY AND/OR WEATHER CONDITIONS ARE NOT AVAILABLE FOR
       CHILLICOTHE AND FARMINGTON.

MOZ001>031-035>038-043-044-053-054-260900-
...NORTHERN AND WESTERN MISSOURI...

CITY           SKY/WX    TMP DP  RH WIND       PRES   REMARKS
KANSAS CTY INT CLEAR     80  72  76 SW14      29.80S
KANSAS C DTWN  CLEAR     84  71  65 SW17      29.79S
LEE`S SUMMIT   CLEAR     80  71  74 SW15      29.83S
ST JOSEPH      CLEAR     76  73  91 CALM      29.78S
CHILLICOTHE      N/A     78  73  84 S3        29.80S

$$
MOZ066>068-077>081-088>096-101>105-260900-
...SOUTHWEST MISSOURI...

CITY           SKY/WX    TMP DP  RH WIND       PRES   REMARKS
SPRINGFIELD    PTCLDY    74  70  87 S9        29.92S
JOPLIN         CLEAR     78  71  79 SW14      29.89S

$$
MOZ032>034-039>042-045>050-055>058-069>072-260900-
...CENTRAL MISSOURI...

CITY           SKY/WX    TMP DP  RH WIND       PRES   REMARKS
COLUMBIA       CLEAR     74  71  91 S8        29.86S
JEFFERSON CITY CLEAR     76  70  82 SE5       29.85S
ROLLA          CLEAR     73  69  87 S15       29.89S
SEDALIA        CLEAR     80  70  71 SW16      29.84F
OSAGE BEACH    PTCLDY    73  70  88 S5        29.88S

$$
MOZ051-052-059>065-260900-
...EAST CENTRAL MISSOURI...

CITY           SKY/WX    TMP DP  RH WIND       PRES   REMARKS
ST LOUIS INTL  MOCLDY    73  65  75 SE6       29.90S
SPIRIT OF STL  MOCLDY    74  67  78 CALM      29.87F
ST CHARLES     PTCLDY    68  66  93 E6        29.87F

$$
MOZ072>076-082>087-097>100-106>115-260900-
...SOUTH CENTRAL AND SOUTHEAST MISSOURI...

CITY           SKY/WX    TMP DP  RH WIND       PRES   REMARKS
CAPE GIRARDEAU CLEAR     68  64  87 S7        29.95F
FARMINGTON     CLEAR     70  66  88 S7        29.95F
POPLAR BLUFF   CLEAR     66  62  87 CALM      29.94S
WEST PLAINS    CLEAR     71  68  90 S3        29.98S

$$



USA.gov is the U.S. government's official web portal to all federal, state and local government web resources and services.